Find Starlink 32908

NORAD ID: 63084 Int'l Des: 2025-037 Owner: SPXS Country: US Constellation: starlink operational
LEOCIRCULAR

当前视图

正在加载3D地球...

About Starlink 32908

Starlink 32908 (NORAD 63084) is a starlink constellation satellite (v2 mini) launched Feb 23, 2025 by SPXS of US. It operates in LEO, CIRCULAR orbit with a mass of 730.00 kg.

关于 Starlink 32908

正在加载描述...

即将过境

Passes for default location (London). Set your location on the main map for personalized predictions.

高度历史

Loading altitude history...

两行轨道根数

1 63084U 25037H 26176.18151159 .00003436 00000-0 29550-3 0 9991
2 63084 70.0014 83.4134 0002703 268.6008 91.4841 14.98342176 74564
Epoch: Jun 25, 2026 • Age: 12 hours

当前状态

高度 582.1 km
速度 7.57 km/s
星下点 -31.38°S, 113.25°E
发射日期 Feb 23, 2025
运行时间 1.3 years
类型 internet

技术详情

分类 Payload
质量 730.00 kg
干质量 700.00 kg
总质量 730.00 kg
长度 0.30 m
直径 4.10 m
跨度 29.00 m
形状 Box + pan
制造商 SPXS
平台类型 Starlink V2M
阶段状态 In Orbit
所有者/国家 SPXS/US

Most Searched